Погода в Изяславе

Украина / Хмельницкая область     50°07′08″N   26°49′19″E
темп.,
°C
ветер,
м/с
пор.,
м/с
влажн.,
%
обл.,
%
осадки,
мм/ч
давл.,
гПа
погр.,
м
28 июля, ср
ср2800:00+19ю3792100 1.9 1015126
03:00+19зюз22935 3.1 101432
06:00+18зсз3694100 0.0 1015103
09:00+22зсз34805 0.0 1015301
12:00+27з23594 0.0 1015989
15:00+29з24435 0.0 10141616
18:00+29ссз234843 0.0 1012957
21:00+23юв33670 0.1 101221
29 июля, чт
чт2900:00+20юв3587100 1.4 101268
03:00+19ююз36845 1.6 101177
06:00+19ю47823 0.0 1010118
09:00+23юз476726 0.0 1010316
12:00+27зсз45560 0.0 10101061
15:00+28з785642 0.0 10101651
18:00+25зсз686427 0.0 10101354
21:00+22зсз49771 0.0 1011374
30 июля, пт
пт3000:00+19зсз34850 0.0 101257
03:00+17з35880 0.0 101381
06:00+18з35820 0.0 1013110
09:00+22з35670 0.0 1013409
12:00+26з45486 0.0 10131932
15:00+28зсз46390 0.0 10112320
18:00+27зсз45441 0.0 10111961
21:00+22юз22575 0.0 101111
31 июля, сб
сб3100:00+20ююз336173 0.0 101132
03:00+19ююз356350 0.0 101165
06:00+19ю47710 0.0 1010113
09:00+24ю59570 0.0 1010391
12:00+29ю79407 0.0 10091292
15:00+31ю89385 0.0 10071797
18:00+30ююв79440 0.0 10051307
21:00+18сз91391100 4.9 1009394
1 августа, вс
вс100:00+18з4697100 14.1 1010185
03:00+16зсз499780 14.1 1011249
06:00+15з25972 0.0 1012121
09:00+19зсз22780 0.0 1012287
12:00+24юв22515 0.0 10121083
15:00+26юв23445 0.0 10111345
18:00+26юв475178 0.0 10081219
21:00+20ююз81686100 1.9 1009521